Location: Altleiningen
(49.5078°N, 8.0741°E)
Time: 23:58:11
(UTC+00:00)

Resurs 1-3 - Pass Details

Date: 03 March 2021
Orbit: 629 x 633 km, 97.9° (Epoch: 13 April)

Event Time Altitude Azimuth Distance (km) Brightness Sun altitude
Exits shadow 19:38:48 80° 174° (S) 649 3.5 -24.0°
Maximum altitude 19:39:03 88° 258° (WSW) 641 3.5 -24.1°
Drops below altitude 10° 19:43:29 10° 346° (NNW) 2,029 6.6 -24.7°
Sets 19:45:41 0° 347° (NNW) 2,942 7.5 -25.1°
